owner,sensor,date,latitude,longitude,sea_surface_height_above_sea_level,qcFlag 
TCOON,ioos:station:TCOON:057:1,2017-03-01T00:18:00Z,28.4460,-96.3961,3.708,1111122 
TCOON,ioos:station:TCOON:057:1,2017-03-01T01:18:00Z,28.4460,-96.3961,3.723,1111122 
TCOON,ioos:station:TCOON:057:1,2017-03-01T02:18:00Z,28.4460,-96.3961,3.724,1111122 
TCOON,ioos:station:TCOON:057:1,2017-03-01T03:18:00Z,28.4460,-96.3961,3.728,1111122 
TCOON,ioos:station:TCOON:057:1,2017-03-01T04:18:00Z,28.4460,-96.3961,3.729,1111122 
TCOON,ioos:station:TCOON:057:1,2017-03-01T05:18:00Z,28.4460,-96.3961,3.723,1111122 
TCOON,ioos:station:TCOON:057:1,2017-03-01T06:18:00Z,28.4460,-96.3961,3.715,1111122 
TCOON,ioos:station:TCOON:057:1,2017-03-01T07:18:00Z,28.4460,-96.3961,3.709,1111122 
TCOON,ioos:station:TCOON:057:1,2017-03-01T08:18:00Z,28.4460,-96.3961,3.74,1111122 
TCOON,ioos:station:TCOON:057:1,2017-03-01T09:18:00Z,28.4460,-96.3961,3.762,1111122 
TCOON,ioos:station:TCOON:057:1,2017-03-01T10:18:00Z,28.4460,-96.3961,3.793,1111122 
TCOON,ioos:station:TCOON:057:1,2017-03-01T11:18:00Z,28.4460,-96.3961,3.752,1111122 
TCOON,ioos:station:TCOON:057:1,2017-03-01T12:18:00Z,28.4460,-96.3961,3.774,1111122 
TCOON,ioos:station:TCOON:057:1,2017-03-01T13:18:00Z,28.4460,-96.3961,3.77,1111122 
TCOON,ioos:station:TCOON:057:1,2017-03-01T14:18:00Z,28.4460,-96.3961,3.795,1111122 
TCOON,ioos:station:TCOON:057:1,2017-03-01T15:18:00Z,28.4460,-96.3961,3.773,1111122 
TCOON,ioos:station:TCOON:057:1,2017-03-01T16:18:00Z,28.4460,-96.3961,3.745,1111122 
TCOON,ioos:station:TCOON:057:1,2017-03-01T17:18:00Z,28.4460,-96.3961,3.727,1111122 
TCOON,ioos:station:TCOON:057:1,2017-03-01T18:18:00Z,28.4460,-96.3961,3.694,1111122 
TCOON,ioos:station:TCOON:057:1,2017-03-01T19:18:00Z,28.4460,-96.3961,3.668,1111122 
TCOON,ioos:station:TCOON:057:1,2017-03-01T20:18:00Z,28.4460,-96.3961,3.655,1111122 
TCOON,ioos:station:TCOON:057:1,2017-03-01T21:18:00Z,28.4460,-96.3961,3.701,1111122 
TCOON,ioos:station:TCOON:057:1,2017-03-01T22:18:00Z,28.4460,-96.3961,3.702,1111122 
TCOON,ioos:station:TCOON:057:1,2017-03-02T00:18:00Z,28.4460,-96.3961,3.654,1111122 
TCOON,ioos:station:TCOON:057:1,2017-03-02T01:18:00Z,28.4460,-96.3961,3.611,1111122 
TCOON,ioos:station:TCOON:057:1,2017-03-02T02:18:00Z,28.4460,-96.3961,3.58,1111122 
TCOON,ioos:station:TCOON:057:1,2017-03-02T03:18:00Z,28.4460,-96.3961,3.585,1111122 
TCOON,ioos:station:TCOON:057:1,2017-03-02T04:18:00Z,28.4460,-96.3961,3.576,1111122 
TCOON,ioos:station:TCOON:057:1,2017-03-02T05:18:00Z,28.4460,-96.3961,3.542,1111122 
TCOON,ioos:station:TCOON:057:1,2017-03-02T06:18:00Z,28.4460,-96.3961,3.526,1111122 
TCOON,ioos:station:TCOON:057:1,2017-03-02T07:18:00Z,28.4460,-96.3961,3.508,1111122 
TCOON,ioos:station:TCOON:057:1,2017-03-02T08:18:00Z,28.4460,-96.3961,3.497,1111122 
TCOON,ioos:station:TCOON:057:1,2017-03-02T09:18:00Z,28.4460,-96.3961,3.517,1111122 
TCOON,ioos:station:TCOON:057:1,2017-03-02T10:18:00Z,28.4460,-96.3961,3.562,1111122 
TCOON,ioos:station:TCOON:057:1,2017-03-02T11:18:00Z,28.4460,-96.3961,3.591,1111122 
TCOON,ioos:station:TCOON:057:1,2017-03-02T12:12:00Z,28.4460,-96.3961,3.64,1111122 
TCOON,ioos:station:TCOON:057:1,2017-03-02T13:18:00Z,28.4460,-96.3961,3.647,1111122 
TCOON,ioos:station:TCOON:057:1,2017-03-02T14:18:00Z,28.4460,-96.3961,3.681,1111122 
TCOON,ioos:station:TCOON:057:1,2017-03-02T15:18:00Z,28.4460,-96.3961,3.693,1111122 
TCOON,ioos:station:TCOON:057:1,2017-03-02T16:18:00Z,28.4460,-96.3961,3.698,1111122 
TCOON,ioos:station:TCOON:057:1,2017-03-02T17:18:00Z,28.4460,-96.3961,3.702,1111122 
TCOON,ioos:station:TCOON:057:1,2017-03-02T18:18:00Z,28.4460,-96.3961,3.688,1111122 
TCOON,ioos:station:TCOON:057:1,2017-03-02T19:18:00Z,28.4460,-96.3961,3.684,1111122 
TCOON,ioos:station:TCOON:057:1,2017-03-02T20:18:00Z,28.4460,-96.3961,3.708,1111122 
TCOON,ioos:station:TCOON:057:1,2017-03-02T21:18:00Z,28.4460,-96.3961,3.747,1111122 
TCOON,ioos:station:TCOON:057:1,2017-03-02T22:18:00Z,28.4460,-96.3961,3.747,1111122 
TCOON,ioos:station:TCOON:057:1,2017-03-02T23:18:00Z,28.4460,-96.3961,3.77,1111122 
TCOON,ioos:station:TCOON:057:1,2017-03-03T00:18:00Z,28.4460,-96.3961,3.779,1111122 
TCOON,ioos:station:TCOON:057:1,2017-03-03T01:18:00Z,28.4460,-96.3961,3.782,1111122 
TCOON,ioos:station:TCOON:057:1,2017-03-03T02:18:00Z,28.4460,-96.3961,3.766,1111122 
TCOON,ioos:station:TCOON:057:1,2017-03-03T03:18:00Z,28.4460,-96.3961,3.73,1111122 
TCOON,ioos:station:TCOON:057:1,2017-03-03T04:18:00Z,28.4460,-96.3961,3.721,1111122 
TCOON,ioos:station:TCOON:057:1,2017-03-03T05:18:00Z,28.4460,-96.3961,3.696,1111122 
TCOON,ioos:station:TCOON:057:1,2017-03-03T06:18:00Z,28.4460,-96.3961,3.684,1111122 
TCOON,ioos:station:TCOON:057:1,2017-03-03T07:18:00Z,28.4460,-96.3961,3.663,1111122 
TCOON,ioos:station:TCOON:057:1,2017-03-03T08:18:00Z,28.4460,-96.3961,3.66,1111122 
TCOON,ioos:station:TCOON:057:1,2017-03-03T09:18:00Z,28.4460,-96.3961,3.659,1111122 
TCOON,ioos:station:TCOON:057:1,2017-03-03T10:18:00Z,28.4460,-96.3961,3.656,1111122 
TCOON,ioos:station:TCOON:057:1,2017-03-03T11:18:00Z,28.4460,-96.3961,3.674,1111122 
TCOON,ioos:station:TCOON:057:1,2017-03-03T12:18:00Z,28.4460,-96.3961,3.688,1111122 
TCOON,ioos:station:TCOON:057:1,2017-03-03T13:18:00Z,28.4460,-96.3961,3.702,1111122 
TCOON,ioos:station:TCOON:057:1,2017-03-03T14:18:00Z,28.4460,-96.3961,3.718,1111122 
TCOON,ioos:station:TCOON:057:1,2017-03-03T15:18:00Z,28.4460,-96.3961,3.739,1111122 
TCOON,ioos:station:TCOON:057:1,2017-03-03T16:18:00Z,28.4460,-96.3961,3.749,1111122 
TCOON,ioos:station:TCOON:057:1,2017-03-03T17:18:00Z,28.4460,-96.3961,3.774,1111122 
TCOON,ioos:station:TCOON:057:1,2017-03-03T18:18:00Z,28.4460,-96.3961,3.806,1111122 
TCOON,ioos:station:TCOON:057:1,2017-03-03T19:18:00Z,28.4460,-96.3961,3.797,1111122 
TCOON,ioos:station:TCOON:057:1,2017-03-03T20:18:00Z,28.4460,-96.3961,3.799,1111122 
TCOON,ioos:station:TCOON:057:1,2017-03-03T21:18:00Z,28.4460,-96.3961,3.809,1111122 
TCOON,ioos:station:TCOON:057:1,2017-03-03T22:18:00Z,28.4460,-96.3961,3.828,1111122 
TCOON,ioos:station:TCOON:057:1,2017-03-04T00:18:00Z,28.4460,-96.3961,3.867,1111122 
TCOON,ioos:station:TCOON:057:1,2017-03-04T01:18:00Z,28.4460,-96.3961,3.873,1111122 
TCOON,ioos:station:TCOON:057:1,2017-03-04T02:18:00Z,28.4460,-96.3961,3.873,1111122 
TCOON,ioos:station:TCOON:057:1,2017-03-04T03:18:00Z,28.4460,-96.3961,3.883,1111122 
TCOON,ioos:station:TCOON:057:1,2017-03-04T04:18:00Z,28.4460,-96.3961,3.871,1111122 
TCOON,ioos:station:TCOON:057:1,2017-03-04T05:18:00Z,28.4460,-96.3961,3.847,1111122 
TCOON,ioos:station:TCOON:057:1,2017-03-04T06:18:00Z,28.4460,-96.3961,3.831,1111122 
TCOON,ioos:station:TCOON:057:1,2017-03-04T07:18:00Z,28.4460,-96.3961,3.813,1111122 
TCOON,ioos:station:TCOON:057:1,2017-03-04T08:18:00Z,28.4460,-96.3961,3.803,1111122 
TCOON,ioos:station:TCOON:057:1,2017-03-04T09:18:00Z,28.4460,-96.3961,3.789,1111122 
TCOON,ioos:station:TCOON:057:1,2017-03-04T10:18:00Z,28.4460,-96.3961,3.789,1111122 
TCOON,ioos:station:TCOON:057:1,2017-03-04T11:18:00Z,28.4460,-96.3961,3.799,1111122 
TCOON,ioos:station:TCOON:057:1,2017-03-04T12:18:00Z,28.4460,-96.3961,3.815,1111122 
TCOON,ioos:station:TCOON:057:1,2017-03-04T13:18:00Z,28.4460,-96.3961,3.841,1111122 
TCOON,ioos:station:TCOON:057:1,2017-03-04T14:18:00Z,28.4460,-96.3961,3.865,1111122 
TCOON,ioos:station:TCOON:057:1,2017-03-04T15:18:00Z,28.4460,-96.3961,3.881,1111122 
TCOON,ioos:station:TCOON:057:1,2017-03-04T16:18:00Z,28.4460,-96.3961,3.904,1111122 
TCOON,ioos:station:TCOON:057:1,2017-03-04T17:18:00Z,28.4460,-96.3961,3.927,1111122 
TCOON,ioos:station:TCOON:057:1,2017-03-04T18:18:00Z,28.4460,-96.3961,3.914,1111122 
TCOON,ioos:station:TCOON:057:1,2017-03-04T19:18:00Z,28.4460,-96.3961,3.919,1111122 
TCOON,ioos:station:TCOON:057:1,2017-03-04T20:18:00Z,28.4460,-96.3961,3.926,1111122 
TCOON,ioos:station:TCOON:057:1,2017-03-04T21:18:00Z,28.4460,-96.3961,3.936,1111122 
TCOON,ioos:station:TCOON:057:1,2017-03-04T22:18:00Z,28.4460,-96.3961,3.933,1111122 
TCOON,ioos:station:TCOON:057:1,2017-03-04T23:18:00Z,28.4460,-96.3961,3.921,1111122 
TCOON,ioos:station:TCOON:057:1,2017-03-05T00:18:00Z,28.4460,-96.3961,3.913,1111122 
TCOON,ioos:station:TCOON:057:1,2017-03-05T01:18:00Z,28.4460,-96.3961,3.918,1111122 
TCOON,ioos:station:TCOON:057:1,2017-03-05T02:18:00Z,28.4460,-96.3961,3.913,1111122 
TCOON,ioos:station:TCOON:057:1,2017-03-05T03:18:00Z,28.4460,-96.3961,3.856,1111122 
TCOON,ioos:station:TCOON:057:1,2017-03-05T04:18:00Z,28.4460,-96.3961,3.834,1111122 
TCOON,ioos:station:TCOON:057:1,2017-03-05T05:18:00Z,28.4460,-96.3961,3.783,1111122 
TCOON,ioos:station:TCOON:057:1,2017-03-05T06:24:00Z,28.4460,-96.3961,3.789,1111122 
TCOON,ioos:station:TCOON:057:1,2017-03-05T07:18:00Z,28.4460,-96.3961,3.758,1111122 
TCOON,ioos:station:TCOON:057:1,2017-03-05T08:18:00Z,28.4460,-96.3961,3.732,1111122 
TCOON,ioos:station:TCOON:057:1,2017-03-05T09:18:00Z,28.4460,-96.3961,3.729,1111122 
TCOON,ioos:station:TCOON:057:1,2017-03-05T10:18:00Z,28.4460,-96.3961,3.72,1111122 
TCOON,ioos:station:TCOON:057:1,2017-03-05T11:18:00Z,28.4460,-96.3961,3.731,1111122 
TCOON,ioos:station:TCOON:057:1,2017-03-05T12:18:00Z,28.4460,-96.3961,3.745,1111122 
TCOON,ioos:station:TCOON:057:1,2017-03-05T13:18:00Z,28.4460,-96.3961,3.773,1111122 
TCOON,ioos:station:TCOON:057:1,2017-03-05T14:18:00Z,28.4460,-96.3961,3.811,1111122 
TCOON,ioos:station:TCOON:057:1,2017-03-05T15:18:00Z,28.4460,-96.3961,3.841,1111122 
TCOON,ioos:station:TCOON:057:1,2017-03-05T16:18:00Z,28.4460,-96.3961,3.878,1111122 
TCOON,ioos:station:TCOON:057:1,2017-03-05T17:18:00Z,28.4460,-96.3961,3.906,1111122 
TCOON,ioos:station:TCOON:057:1,2017-03-05T18:18:00Z,28.4460,-96.3961,3.94,1111122 
TCOON,ioos:station:TCOON:057:1,2017-03-05T19:18:00Z,28.4460,-96.3961,3.947,1111122 
TCOON,ioos:station:TCOON:057:1,2017-03-05T20:18:00Z,28.4460,-96.3961,3.97,1111122 
TCOON,ioos:station:TCOON:057:1,2017-03-05T21:18:00Z,28.4460,-96.3961,3.977,1111122 
TCOON,ioos:station:TCOON:057:1,2017-03-05T22:18:00Z,28.4460,-96.3961,3.988,1111122 
TCOON,ioos:station:TCOON:057:1,2017-03-05T23:18:00Z,28.4460,-96.3961,3.979,1111122 
TCOON,ioos:station:TCOON:057:1,2017-03-06T00:18:00Z,28.4460,-96.3961,3.967,1111122 
TCOON,ioos:station:TCOON:057:1,2017-03-06T01:18:00Z,28.4460,-96.3961,3.964,1111122 
TCOON,ioos:station:TCOON:057:1,2017-03-06T02:18:00Z,28.4460,-96.3961,3.946,1111122 
TCOON,ioos:station:TCOON:057:1,2017-03-06T03:18:00Z,28.4460,-96.3961,3.926,1111122 
TCOON,ioos:station:TCOON:057:1,2017-03-06T04:18:00Z,28.4460,-96.3961,3.895,1111122 
TCOON,ioos:station:TCOON:057:1,2017-03-06T05:18:00Z,28.4460,-96.3961,3.867,1111122 
TCOON,ioos:station:TCOON:057:1,2017-03-06T06:18:00Z,28.4460,-96.3961,3.843,1111122 
TCOON,ioos:station:TCOON:057:1,2017-03-06T07:18:00Z,28.4460,-96.3961,3.808,1111122 
TCOON,ioos:station:TCOON:057:1,2017-03-06T08:18:00Z,28.4460,-96.3961,3.778,1111122 
TCOON,ioos:station:TCOON:057:1,2017-03-06T09:18:00Z,28.4460,-96.3961,3.75,1111122 
TCOON,ioos:station:TCOON:057:1,2017-03-06T10:18:00Z,28.4460,-96.3961,3.723,1111122 
TCOON,ioos:station:TCOON:057:1,2017-03-06T11:18:00Z,28.4460,-96.3961,3.704,1111122 
TCOON,ioos:station:TCOON:057:1,2017-03-06T12:18:00Z,28.4460,-96.3961,3.682,1111122 
TCOON,ioos:station:TCOON:057:1,2017-03-06T13:18:00Z,28.4460,-96.3961,3.685,1111122 
TCOON,ioos:station:TCOON:057:1,2017-03-06T14:18:00Z,28.4460,-96.3961,3.697,1111122 
TCOON,ioos:station:TCOON:057:1,2017-03-06T15:18:00Z,28.4460,-96.3961,3.726,1111122 
TCOON,ioos:station:TCOON:057:1,2017-03-06T16:18:00Z,28.4460,-96.3961,3.742,1111122 
TCOON,ioos:station:TCOON:057:1,2017-03-06T17:18:00Z,28.4460,-96.3961,3.759,1111122 
TCOON,ioos:station:TCOON:057:1,2017-03-06T18:18:00Z,28.4460,-96.3961,3.781,1111122 
TCOON,ioos:station:TCOON:057:1,2017-03-06T19:18:00Z,28.4460,-96.3961,3.825,1111122 
TCOON,ioos:station:TCOON:057:1,2017-03-06T20:18:00Z,28.4460,-96.3961,3.857,1111122 
TCOON,ioos:station:TCOON:057:1,2017-03-06T21:18:00Z,28.4460,-96.3961,3.889,1111122 
TCOON,ioos:station:TCOON:057:1,2017-03-06T22:18:00Z,28.4460,-96.3961,3.914,1111122 
TCOON,ioos:station:TCOON:057:1,2017-03-06T23:18:00Z,28.4460,-96.3961,3.93,1111122 
TCOON,ioos:station:TCOON:057:1,2017-03-07T00:18:00Z,28.4460,-96.3961,3.942,1111122 
TCOON,ioos:station:TCOON:057:1,2017-03-07T01:18:00Z,28.4460,-96.3961,3.942,1111122 
TCOON,ioos:station:TCOON:057:1,2017-03-07T02:18:00Z,28.4460,-96.3961,3.948,1111122 
TCOON,ioos:station:TCOON:057:1,2017-03-07T03:18:00Z,28.4460,-96.3961,3.948,1111122 
TCOON,ioos:station:TCOON:057:1,2017-03-07T04:18:00Z,28.4460,-96.3961,3.933,1111122 
TCOON,ioos:station:TCOON:057:1,2017-03-07T05:18:00Z,28.4460,-96.3961,3.927,1111122 
TCOON,ioos:station:TCOON:057:1,2017-03-07T06:18:00Z,28.4460,-96.3961,3.893,1111122 
TCOON,ioos:station:TCOON:057:1,2017-03-07T07:18:00Z,28.4460,-96.3961,3.867,1111122 
TCOON,ioos:station:TCOON:057:1,2017-03-07T08:18:00Z,28.4460,-96.3961,3.842,1111122 
TCOON,ioos:station:TCOON:057:1,2017-03-07T09:18:00Z,28.4460,-96.3961,3.819,1111122 
TCOON,ioos:station:TCOON:057:1,2017-03-07T10:18:00Z,28.4460,-96.3961,3.795,1111122 
TCOON,ioos:station:TCOON:057:1,2017-03-07T11:18:00Z,28.4460,-96.3961,3.762,1111122 
TCOON,ioos:station:TCOON:057:1,2017-03-07T12:18:00Z,28.4460,-96.3961,3.743,1111122 
TCOON,ioos:station:TCOON:057:1,2017-03-07T13:18:00Z,28.4460,-96.3961,3.728,1111122 
TCOON,ioos:station:TCOON:057:1,2017-03-07T14:18:00Z,28.4460,-96.3961,3.717,1111122 
TCOON,ioos:station:TCOON:057:1,2017-03-07T15:18:00Z,28.4460,-96.3961,3.718,1111122 
TCOON,ioos:station:TCOON:057:1,2017-03-07T16:18:00Z,28.4460,-96.3961,3.739,1111122 
TCOON,ioos:station:TCOON:057:1,2017-03-07T17:18:00Z,28.4460,-96.3961,3.756,1111122 
TCOON,ioos:station:TCOON:057:1,2017-03-07T18:24:00Z,28.4460,-96.3961,3.782,1111122 
TCOON,ioos:station:TCOON:057:1,2017-03-07T19:24:00Z,28.4460,-96.3961,3.808,1111122 
TCOON,ioos:station:TCOON:057:1,2017-03-07T20:18:00Z,28.4460,-96.3961,3.836,1111122 
TCOON,ioos:station:TCOON:057:1,2017-03-07T21:18:00Z,28.4460,-96.3961,3.862,1111122 
TCOON,ioos:station:TCOON:057:1,2017-03-07T22:18:00Z,28.4460,-96.3961,3.883,1111122 
TCOON,ioos:station:TCOON:057:1,2017-03-08T00:18:00Z,28.4460,-96.3961,3.904,1111122 
TCOON,ioos:station:TCOON:057:1,2017-03-08T01:18:00Z,28.4460,-96.3961,3.928,1111122 
TCOON,ioos:station:TCOON:057:1,2017-03-08T02:18:00Z,28.4460,-96.3961,3.927,1111122 
TCOON,ioos:station:TCOON:057:1,2017-03-08T03:18:00Z,28.4460,-96.3961,3.894,1111122 
TCOON,ioos:station:TCOON:057:1,2017-03-08T04:18:00Z,28.4460,-96.3961,3.915,1111122 
TCOON,ioos:station:TCOON:057:1,2017-03-08T05:18:00Z,28.4460,-96.3961,3.899,1111122 
TCOON,ioos:station:TCOON:057:1,2017-03-08T06:18:00Z,28.4460,-96.3961,3.844,1111122 
TCOON,ioos:station:TCOON:057:1,2017-03-08T07:18:00Z,28.4460,-96.3961,3.801,1111122 
TCOON,ioos:station:TCOON:057:1,2017-03-08T08:18:00Z,28.4460,-96.3961,3.758,1111122 
TCOON,ioos:station:TCOON:057:1,2017-03-08T09:18:00Z,28.4460,-96.3961,3.728,1111122 
TCOON,ioos:station:TCOON:057:1,2017-03-08T10:18:00Z,28.4460,-96.3961,3.699,1111122 
TCOON,ioos:station:TCOON:057:1,2017-03-08T11:18:00Z,28.4460,-96.3961,3.675,1111122 
TCOON,ioos:station:TCOON:057:1,2017-03-08T12:18:00Z,28.4460,-96.3961,3.654,1111122 
TCOON,ioos:station:TCOON:057:1,2017-03-08T13:18:00Z,28.4460,-96.3961,3.651,1111122 
TCOON,ioos:station:TCOON:057:1,2017-03-08T14:18:00Z,28.4460,-96.3961,3.64,1111122 
TCOON,ioos:station:TCOON:057:1,2017-03-08T15:18:00Z,28.4460,-96.3961,3.638,1111122 
TCOON,ioos:station:TCOON:057:1,2017-03-08T16:18:00Z,28.4460,-96.3961,3.649,1111122 
TCOON,ioos:station:TCOON:057:1,2017-03-08T17:18:00Z,28.4460,-96.3961,3.693,1111122 
TCOON,ioos:station:TCOON:057:1,2017-03-08T18:18:00Z,28.4460,-96.3961,3.718,1111122 
TCOON,ioos:station:TCOON:057:1,2017-03-08T19:18:00Z,28.4460,-96.3961,3.746,1111122 
TCOON,ioos:station:TCOON:057:1,2017-03-08T20:18:00Z,28.4460,-96.3961,3.777,1111122 
TCOON,ioos:station:TCOON:057:1,2017-03-08T21:18:00Z,28.4460,-96.3961,3.805,1111122 
TCOON,ioos:station:TCOON:057:1,2017-03-08T22:18:00Z,28.4460,-96.3961,3.835,1111122 
TCOON,ioos:station:TCOON:057:1,2017-03-08T23:18:00Z,28.4460,-96.3961,3.844,1111122 
TCOON,ioos:station:TCOON:057:1,2017-03-09T00:18:00Z,28.4460,-96.3961,3.86,1111122 
TCOON,ioos:station:TCOON:057:1,2017-03-09T01:18:00Z,28.4460,-96.3961,3.878,1111122 
TCOON,ioos:station:TCOON:057:1,2017-03-09T02:18:00Z,28.4460,-96.3961,3.869,1111122 
TCOON,ioos:station:TCOON:057:1,2017-03-09T03:18:00Z,28.4460,-96.3961,3.875,1111122 
TCOON,ioos:station:TCOON:057:1,2017-03-09T04:18:00Z,28.4460,-96.3961,3.868,1111122 
TCOON,ioos:station:TCOON:057:1,2017-03-09T05:18:00Z,28.4460,-96.3961,3.872,1111122 
TCOON,ioos:station:TCOON:057:1,2017-03-09T06:18:00Z,28.4460,-96.3961,3.86,1111122 
TCOON,ioos:station:TCOON:057:1,2017-03-09T07:18:00Z,28.4460,-96.3961,3.831,1111122 
TCOON,ioos:station:TCOON:057:1,2017-03-09T08:18:00Z,28.4460,-96.3961,3.818,1111122 
TCOON,ioos:station:TCOON:057:1,2017-03-09T09:18:00Z,28.4460,-96.3961,3.791,1111122 
TCOON,ioos:station:TCOON:057:1,2017-03-09T10:18:00Z,28.4460,-96.3961,3.756,1111122 
TCOON,ioos:station:TCOON:057:1,2017-03-09T11:18:00Z,28.4460,-96.3961,3.727,1111122 
TCOON,ioos:station:TCOON:057:1,2017-03-09T12:18:00Z,28.4460,-96.3961,3.701,1111122 
TCOON,ioos:station:TCOON:057:1,2017-03-09T13:18:00Z,28.4460,-96.3961,3.677,1111122 
TCOON,ioos:station:TCOON:057:1,2017-03-09T14:18:00Z,28.4460,-96.3961,3.655,1111122 
TCOON,ioos:station:TCOON:057:1,2017-03-09T15:18:00Z,28.4460,-96.3961,3.642,1111122 
TCOON,ioos:station:TCOON:057:1,2017-03-09T16:18:00Z,28.4460,-96.3961,3.625,1111122 
TCOON,ioos:station:TCOON:057:1,2017-03-09T17:18:00Z,28.4460,-96.3961,3.639,1111122 
TCOON,ioos:station:TCOON:057:1,2017-03-09T18:18:00Z,28.4460,-96.3961,3.654,1111122 
TCOON,ioos:station:TCOON:057:1,2017-03-09T19:18:00Z,28.4460,-96.3961,3.679,1111122 
TCOON,ioos:station:TCOON:057:1,2017-03-09T20:18:00Z,28.4460,-96.3961,3.71,1111122 
TCOON,ioos:station:TCOON:057:1,2017-03-09T21:18:00Z,28.4460,-96.3961,3.738,1111122 
TCOON,ioos:station:TCOON:057:1,2017-03-09T22:18:00Z,28.4460,-96.3961,3.764,1111122 
TCOON,ioos:station:TCOON:057:1,2017-03-09T23:18:00Z,28.4460,-96.3961,3.792,1111122 
TCOON,ioos:station:TCOON:057:1,2017-03-10T00:18:00Z,28.4460,-96.3961,3.831,1111122 
TCOON,ioos:station:TCOON:057:1,2017-03-10T01:18:00Z,28.4460,-96.3961,3.834,1111122 
TCOON,ioos:station:TCOON:057:1,2017-03-10T02:18:00Z,28.4460,-96.3961,3.826,1111122 
TCOON,ioos:station:TCOON:057:1,2017-03-10T03:18:00Z,28.4460,-96.3961,3.816,1111122 
TCOON,ioos:station:TCOON:057:1,2017-03-10T04:24:00Z,28.4460,-96.3961,3.807,1111122 
TCOON,ioos:station:TCOON:057:1,2017-03-10T05:18:00Z,28.4460,-96.3961,3.82,1111122 
TCOON,ioos:station:TCOON:057:1,2017-03-10T07:00:00Z,28.4460,-96.3961,3.799,1111122 
TCOON,ioos:station:TCOON:057:1,2017-03-10T07:18:00Z,28.4460,-96.3961,3.801,1111122 
TCOON,ioos:station:TCOON:057:1,2017-03-10T08:18:00Z,28.4460,-96.3961,3.771,1111122 
TCOON,ioos:station:TCOON:057:1,2017-03-10T09:18:00Z,28.4460,-96.3961,3.743,1111122 
TCOON,ioos:station:TCOON:057:1,2017-03-10T10:18:00Z,28.4460,-96.3961,3.732,1111122 
TCOON,ioos:station:TCOON:057:1,2017-03-10T11:18:00Z,28.4460,-96.3961,3.711,1111122 
TCOON,ioos:station:TCOON:057:1,2017-03-10T12:18:00Z,28.4460,-96.3961,3.687,1111122 
TCOON,ioos:station:TCOON:057:1,2017-03-10T13:18:00Z,28.4460,-96.3961,3.668,1111122 
TCOON,ioos:station:TCOON:057:1,2017-03-10T14:18:00Z,28.4460,-96.3961,3.626,1111122 
TCOON,ioos:station:TCOON:057:1,2017-03-10T15:18:00Z,28.4460,-96.3961,3.651,1111122 
TCOON,ioos:station:TCOON:057:1,2017-03-10T16:18:00Z,28.4460,-96.3961,3.597,1111122 
TCOON,ioos:station:TCOON:057:1,2017-03-10T17:18:00Z,28.4460,-96.3961,3.579,1111122 
TCOON,ioos:station:TCOON:057:1,2017-03-10T18:18:00Z,28.4460,-96.3961,3.602,1111122 
TCOON,ioos:station:TCOON:057:1,2017-03-10T19:18:00Z,28.4460,-96.3961,3.611,1111122 
TCOON,ioos:station:TCOON:057:1,2017-03-10T20:18:00Z,28.4460,-96.3961,3.606,1111122 
TCOON,ioos:station:TCOON:057:1,2017-03-10T21:18:00Z,28.4460,-96.3961,3.652,1111122 
TCOON,ioos:station:TCOON:057:1,2017-03-10T22:18:00Z,28.4460,-96.3961,3.678,1111122 
TCOON,ioos:station:TCOON:057:1,2017-03-10T23:18:00Z,28.4460,-96.3961,3.699,1111122 
TCOON,ioos:station:TCOON:057:1,2017-03-11T00:18:00Z,28.4460,-96.3961,3.711,1111122 
TCOON,ioos:station:TCOON:057:1,2017-03-11T01:18:00Z,28.4460,-96.3961,3.751,1111122 
TCOON,ioos:station:TCOON:057:1,2017-03-11T02:18:00Z,28.4460,-96.3961,3.731,1111122 
TCOON,ioos:station:TCOON:057:1,2017-03-11T04:06:00Z,28.4460,-96.3961,3.691,1111122 
TCOON,ioos:station:TCOON:057:1,2017-03-11T05:18:00Z,28.4460,-96.3961,3.671,1111122 
TCOON,ioos:station:TCOON:057:1,2017-03-11T06:18:00Z,28.4460,-96.3961,3.73,1111122 
TCOON,ioos:station:TCOON:057:1,2017-03-11T07:18:00Z,28.4460,-96.3961,3.745,1111122 
TCOON,ioos:station:TCOON:057:1,2017-03-11T08:18:00Z,28.4460,-96.3961,3.741,1111122 
TCOON,ioos:station:TCOON:057:1,2017-03-11T09:18:00Z,28.4460,-96.3961,3.718,1111122 
TCOON,ioos:station:TCOON:057:1,2017-03-11T10:18:00Z,28.4460,-96.3961,3.711,1111122 
TCOON,ioos:station:TCOON:057:1,2017-03-11T11:18:00Z,28.4460,-96.3961,3.688,1111122 
TCOON,ioos:station:TCOON:057:1,2017-03-11T12:18:00Z,28.4460,-96.3961,3.653,1111122 
TCOON,ioos:station:TCOON:057:1,2017-03-11T13:18:00Z,28.4460,-96.3961,3.639,1111122 
TCOON,ioos:station:TCOON:057:1,2017-03-11T14:18:00Z,28.4460,-96.3961,3.607,1111122 
TCOON,ioos:station:TCOON:057:1,2017-03-11T15:18:00Z,28.4460,-96.3961,3.59,1111122 
TCOON,ioos:station:TCOON:057:1,2017-03-11T16:18:00Z,28.4460,-96.3961,3.572,1111122 
TCOON,ioos:station:TCOON:057:1,2017-03-11T17:18:00Z,28.4460,-96.3961,3.584,1111122 
TCOON,ioos:station:TCOON:057:1,2017-03-11T18:18:00Z,28.4460,-96.3961,3.567,1111122 
TCOON,ioos:station:TCOON:057:1,2017-03-11T19:18:00Z,28.4460,-96.3961,3.594,1111122 
TCOON,ioos:station:TCOON:057:1,2017-03-11T20:18:00Z,28.4460,-96.3961,3.638,1111122 
TCOON,ioos:station:TCOON:057:1,2017-03-11T21:18:00Z,28.4460,-96.3961,3.645,1111122 
TCOON,ioos:station:TCOON:057:1,2017-03-11T22:18:00Z,28.4460,-96.3961,3.672,1111122 
TCOON,ioos:station:TCOON:057:1,2017-03-11T23:30:00Z,28.4460,-96.3961,3.7,1111122 
TCOON,ioos:station:TCOON:057:1,2017-03-12T00:18:00Z,28.4460,-96.3961,3.718,1111122 
TCOON,ioos:station:TCOON:057:1,2017-03-12T01:18:00Z,28.4460,-96.3961,3.73,1111122 
TCOON,ioos:station:TCOON:057:1,2017-03-12T02:18:00Z,28.4460,-96.3961,3.769,1111122 
TCOON,ioos:station:TCOON:057:1,2017-03-12T03:18:00Z,28.4460,-96.3961,3.773,1111122 
TCOON,ioos:station:TCOON:057:1,2017-03-12T04:18:00Z,28.4460,-96.3961,3.774,1111122 
TCOON,ioos:station:TCOON:057:1,2017-03-12T05:18:00Z,28.4460,-96.3961,3.8,1111122 
TCOON,ioos:station:TCOON:057:1,2017-03-12T06:18:00Z,28.4460,-96.3961,3.81,1111122 
TCOON,ioos:station:TCOON:057:1,2017-03-12T07:18:00Z,28.4460,-96.3961,3.835,1111122 
TCOON,ioos:station:TCOON:057:1,2017-03-12T08:18:00Z,28.4460,-96.3961,3.836,1111122 
TCOON,ioos:station:TCOON:057:1,2017-03-12T09:18:00Z,28.4460,-96.3961,3.844,1111122 
TCOON,ioos:station:TCOON:057:1,2017-03-12T10:18:00Z,28.4460,-96.3961,3.861,1111122 
TCOON,ioos:station:TCOON:057:1,2017-03-12T11:18:00Z,28.4460,-96.3961,3.843,1111122 
TCOON,ioos:station:TCOON:057:1,2017-03-12T12:18:00Z,28.4460,-96.3961,3.884,1111122 
TCOON,ioos:station:TCOON:057:1,2017-03-12T13:18:00Z,28.4460,-96.3961,3.867,1111122 
TCOON,ioos:station:TCOON:057:1,2017-03-12T14:18:00Z,28.4460,-96.3961,3.812,1111122 
TCOON,ioos:station:TCOON:057:1,2017-03-12T15:18:00Z,28.4460,-96.3961,3.753,1111122 
TCOON,ioos:station:TCOON:057:1,2017-03-12T16:18:00Z,28.4460,-96.3961,3.727,1111122 
TCOON,ioos:station:TCOON:057:1,2017-03-12T17:18:00Z,28.4460,-96.3961,3.69,1111122 
TCOON,ioos:station:TCOON:057:1,2017-03-12T18:18:00Z,28.4460,-96.3961,3.669,1111122 
TCOON,ioos:station:TCOON:057:1,2017-03-12T19:18:00Z,28.4460,-96.3961,3.686,1111122 
TCOON,ioos:station:TCOON:057:1,2017-03-12T20:18:00Z,28.4460,-96.3961,3.703,1111122 
TCOON,ioos:station:TCOON:057:1,2017-03-12T21:18:00Z,28.4460,-96.3961,3.705,1111122 
TCOON,ioos:station:TCOON:057:1,2017-03-12T22:18:00Z,28.4460,-96.3961,3.745,1111122 
TCOON,ioos:station:TCOON:057:1,2017-03-12T23:18:00Z,28.4460,-96.3961,3.763,1111122 
TCOON,ioos:station:TCOON:057:1,2017-03-13T00:18:00Z,28.4460,-96.3961,3.756,1111122 